TimeMST,TemperatureF,Dew PointF,Humidity,Sea Level PressureIn,VisibilityMPH,Wind Direction,Wind SpeedMPH,Gust SpeedMPH,PrecipitationIn,Events,Conditions,WindDirDegrees,DateUTC
12:51 AM,27.0,19.9,75,29.79,10.0,Calm,Calm,-,N/A,,Overcast,0,2013-03-06 07:51:00
1:51 AM,27.0,21.0,78,29.75,10.0,Calm,Calm,-,N/A,,Overcast,0,2013-03-06 08:51:00
2:51 AM,30.0,21.9,72,29.71,10.0,NE,6.9,-,N/A,,Overcast,40,2013-03-06 09:51:00
3:51 AM,33.1,21.0,61,29.70,10.0,NW,5.8,-,0.00,,Overcast,310,2013-03-06 10:51:00
4:24 AM,30.2,24.8,80,29.69,2.5,Calm,Calm,-,0.00,Snow,Light Snow,0,2013-03-06 11:24:00
4:31 AM,30.2,26.6,86,29.69,1.0,NNW,3.5,-,0.01,Snow,Light Snow,340,2013-03-06 11:31:00
4:35 AM,30.2,26.6,86,29.69,0.8,Calm,Calm,-,0.01,Snow,Light Snow,0,2013-03-06 11:35:00
4:47 AM,28.4,26.6,93,29.70,0.2,Calm,Calm,-,0.04,Fog-Snow,Heavy Snow,0,2013-03-06 11:47:00
4:51 AM,28.9,27.0,92,29.74,0.2,WNW,3.5,-,0.06,Fog-Snow,Heavy Snow,290,2013-03-06 11:51:00
5:00 AM,28.4,26.6,93,29.70,0.2,Calm,Calm,-,0.04,Fog-Snow,Heavy Snow,0,2013-03-06 12:00:00
5:16 AM,28.4,26.6,93,29.70,0.5,ENE,4.6,-,0.08,Fog-Snow,Snow,70,2013-03-06 12:16:00
5:42 AM,28.4,28.4,100,29.69,1.2,NE,3.5,-,0.11,Snow,Light Snow,40,2013-03-06 12:42:00
5:47 AM,30.2,28.4,93,29.69,2.5,NNE,3.5,-,0.11,Snow,Light Snow,20,2013-03-06 12:47:00
5:51 AM,30.0,28.0,92,29.73,4.0,NE,4.6,-,0.12,Snow,Light Snow,40,2013-03-06 12:51:00
6:51 AM,28.9,27.0,92,29.72,10.0,Calm,Calm,-,0.00,,Overcast,0,2013-03-06 13:51:00
7:16 AM,28.4,26.6,93,29.66,10.0,Calm,Calm,-,N/A,,Overcast,0,2013-03-06 14:16:00
7:51 AM,28.0,26.1,92,29.71,10.0,Calm,Calm,-,N/A,,Overcast,0,2013-03-06 14:51:00
8:40 AM,28.4,26.6,93,29.65,2.5,Calm,Calm,-,0.00,Snow,Light Snow,0,2013-03-06 15:40:00
8:44 AM,28.4,26.6,93,29.65,1.0,SW,3.5,-,0.00,Snow,Light Snow,230,2013-03-06 15:44:00
8:51 AM,28.9,28.0,96,29.72,0.5,SW,3.5,-,0.00,Fog-Snow,Snow,230,2013-03-06 15:51:00
9:00 AM,28.4,28.4,100,29.67,0.2,Calm,Calm,-,0.01,Fog-Snow,Snow,0,2013-03-06 16:00:00
9:08 AM,28.4,28.4,100,29.67,0.2,Calm,Calm,-,0.03,Fog-Snow,Heavy Snow,0,2013-03-06 16:08:00
9:27 AM,30.2,28.4,93,29.65,1.0,ENE,3.5,-,0.06,Snow,Light Snow,60,2013-03-06 16:27:00
9:31 AM,32.0,28.4,87,29.65,2.0,NE,3.5,-,0.06,Snow,Light Snow,50,2013-03-06 16:31:00
9:38 AM,32.0,30.2,93,29.65,7.0,East,3.5,-,0.06,Snow,Light Snow,80,2013-03-06 16:38:00
9:48 AM,32.0,28.4,87,29.65,10.0,East,3.5,-,0.06,,Mostly Cloudy,80,2013-03-06 16:48:00
9:51 AM,33.1,30.0,89,29.69,10.0,Calm,Calm,-,0.06,,Mostly Cloudy,0,2013-03-06 16:51:00
10:31 AM,33.8,30.2,87,29.64,2.5,South,3.5,-,0.00,Snow,Light Snow,170,2013-03-06 17:31:00
10:38 AM,33.8,30.2,87,29.64,1.8,SE,3.5,-,0.00,Snow,Light Snow,140,2013-03-06 17:38:00
10:42 AM,32.0,28.4,87,29.64,3.0,SE,3.5,-,0.00,Snow,Light Snow,130,2013-03-06 17:42:00
10:51 AM,32.0,28.9,88,29.70,8.0,SE,6.9,-,0.00,,Mostly Cloudy,140,2013-03-06 17:51:00
11:03 AM,33.8,30.2,87,29.64,10.0,South,4.6,-,N/A,,Scattered Clouds,170,2013-03-06 18:03:00
11:51 AM,34.0,30.0,85,29.70,10.0,SSE,6.9,-,N/A,,Mostly Cloudy,160,2013-03-06 18:51:00
12:31 PM,35.6,30.2,81,29.65,9.0,SSE,10.4,23.0,0.00,Snow,Light Snow,150,2013-03-06 19:31:00
12:41 PM,35.6,30.2,81,29.64,9.0,SE,11.5,-,0.00,,Overcast,130,2013-03-06 19:41:00
12:51 PM,36.0,30.9,82,29.68,10.0,SE,8.1,-,0.00,,Overcast,140,2013-03-06 19:51:00
1:31 PM,35.6,30.2,81,29.64,1.8,WSW,29.9,38.0,0.00,Rain-Thunderstorm,Light Rain,240,2013-03-06 20:31:00
1:34 PM,33.8,28.4,81,29.64,0.8,SW,18.4,38.0,0.00,Snow-Thunderstorm,Light Thunderstorms and Snow,220,2013-03-06 20:34:00
1:37 PM,32.0,28.4,87,29.65,0.5,SW,17.3,38.0,0.00,Fog-Snow-Thunderstorm,Thunderstorms and Snow,230,2013-03-06 20:37:00
1:41 PM,32.0,30.2,93,29.66,0.2,SW,19.6,28.8,0.02,Fog-Snow-Thunderstorm,Heavy Thunderstorms and Snow,220,2013-03-06 20:41:00
1:51 PM,30.9,28.9,92,29.75,0.2,SW,18.4,27.6,0.04,Fog-Snow-Thunderstorm,Heavy Snow,220,2013-03-06 20:51:00
2:03 PM,30.2,28.4,93,29.69,0.5,SSW,5.8,-,0.01,Fog-Snow,Snow,210,2013-03-06 21:03:00
2:27 PM,30.2,28.4,93,29.69,1.2,East,4.6,-,0.04,Snow,Light Snow,80,2013-03-06 21:27:00
2:30 PM,30.2,28.4,93,29.69,3.0,East,5.8,-,0.04,Snow,Light Snow,90,2013-03-06 21:30:00
2:43 PM,32.0,28.4,87,29.67,9.0,East,6.9,-,0.04,,Overcast,80,2013-03-06 21:43:00
2:51 PM,32.0,28.9,88,29.73,10.0,East,6.9,-,0.04,,Overcast,90,2013-03-06 21:51:00
3:51 PM,33.1,28.0,82,29.72,2.0,Calm,Calm,-,0.00,Snow,Light Snow,0,2013-03-06 22:51:00
3:57 PM,33.8,28.4,81,29.68,1.8,WSW,3.5,-,0.01,Snow,Light Snow,250,2013-03-06 22:57:00
4:04 PM,32.0,28.4,87,29.69,3.0,SW,5.8,-,0.02,Snow,Light Snow,230,2013-03-06 23:04:00
4:09 PM,32.0,28.4,87,29.69,1.8,SSW,6.9,-,0.02,Snow,Light Snow,210,2013-03-06 23:09:00
4:14 PM,32.0,28.4,87,29.69,0.8,South,4.6,-,0.02,Snow,Light Snow,190,2013-03-06 23:14:00
4:20 PM,30.2,28.4,93,29.69,0.5,South,9.2,-,0.03,Fog-Snow,Snow,170,2013-03-06 23:20:00
4:28 PM,32.0,28.4,87,29.68,1.2,SSE,10.4,-,0.03,Snow,Light Snow,150,2013-03-06 23:28:00
4:32 PM,30.2,28.4,93,29.68,3.0,SSE,10.4,-,0.03,Snow,Light Snow,150,2013-03-06 23:32:00
4:39 PM,32.0,28.4,87,29.68,9.0,SSE,9.2,-,0.03,,Mostly Cloudy,150,2013-03-06 23:39:00
4:51 PM,30.9,27.0,85,29.75,10.0,SE,10.4,-,0.03,,Partly Cloudy,130,2013-03-06 23:51:00
5:51 PM,30.9,27.0,85,29.75,10.0,NNW,3.5,-,N/A,,Scattered Clouds,330,2013-03-07 00:51:00
6:09 PM,30.2,28.4,93,29.70,1.5,South,4.6,-,0.00,Snow,Light Snow,170,2013-03-07 01:09:00
6:11 PM,30.2,28.4,93,29.70,1.0,Calm,Calm,-,0.00,Snow,Light Snow,0,2013-03-07 01:11:00
6:17 PM,30.2,26.6,86,29.70,0.8,SSW,4.6,-,0.00,Snow,Light Snow,200,2013-03-07 01:17:00
6:20 PM,30.2,26.6,86,29.70,1.2,South,3.5,-,0.00,Snow,Light Snow,170,2013-03-07 01:20:00
6:23 PM,30.2,26.6,86,29.71,3.0,SE,4.6,-,0.00,Snow,Light Snow,140,2013-03-07 01:23:00
6:40 PM,30.2,26.6,86,29.71,7.0,SE,8.1,-,0.00,Snow,Light Snow,130,2013-03-07 01:40:00
6:51 PM,30.0,27.0,88,29.78,8.0,ESE,9.2,-,0.00,Snow,Light Snow,120,2013-03-07 01:51:00
7:39 PM,30.2,26.6,86,29.74,2.5,Variable,6.9,-,0.01,Snow,Light Snow,0,2013-03-07 02:39:00
7:41 PM,30.2,28.4,93,29.74,1.8,WSW,9.2,-,0.02,Snow,Light Snow,240,2013-03-07 02:41:00
7:51 PM,30.0,28.0,92,29.81,1.0,Calm,Calm,-,0.04,Snow,Light Snow,0,2013-03-07 02:51:00
7:55 PM,30.2,28.4,93,29.74,1.2,SE,3.5,-,0.00,Snow,Light Snow,130,2013-03-07 02:55:00
8:06 PM,30.2,28.4,93,29.74,3.0,East,5.8,-,0.00,Snow,Light Snow,90,2013-03-07 03:06:00
8:14 PM,30.2,28.4,93,29.74,4.0,Calm,Calm,-,0.00,Snow,Light Snow,0,2013-03-07 03:14:00
8:42 PM,30.2,28.4,93,29.75,2.5,SSE,11.5,-,0.00,Snow,Light Snow,160,2013-03-07 03:42:00
8:51 PM,30.0,28.0,92,29.82,1.8,South,13.8,-,0.01,Snow,Light Snow,170,2013-03-07 03:51:00
8:59 PM,30.2,28.4,93,29.76,2.0,South,16.1,-,0.01,Snow,Light Snow,170,2013-03-07 03:59:00
9:05 PM,30.2,26.6,86,29.76,1.0,SSE,18.4,25.3,0.01,Snow,Light Snow,150,2013-03-07 04:05:00
9:12 PM,30.2,28.4,93,29.78,0.8,South,23.0,27.6,0.02,Snow,Light Snow,180,2013-03-07 04:12:00
9:18 PM,30.2,28.4,93,29.79,1.2,South,19.6,27.6,0.02,Snow,Light Snow,190,2013-03-07 04:18:00
9:27 PM,30.2,28.4,93,29.80,2.0,SSW,8.1,-,0.02,Snow,Light Snow,200,2013-03-07 04:27:00
9:34 PM,30.2,28.4,93,29.81,1.8,South,9.2,-,0.03,Snow,Light Snow,190,2013-03-07 04:34:00
9:36 PM,30.2,26.6,86,29.81,2.0,South,11.5,-,0.03,Snow,Light Snow,190,2013-03-07 04:36:00
9:51 PM,28.9,26.1,89,29.88,1.5,South,13.8,-,0.03,Snow,Light Snow,170,2013-03-07 04:51:00
10:07 PM,28.4,26.6,93,29.83,2.5,South,6.9,-,0.01,Snow,Light Snow,180,2013-03-07 05:07:00
10:13 PM,28.4,26.6,93,29.83,4.0,South,5.8,-,0.01,Snow,Light Snow,170,2013-03-07 05:13:00
10:27 PM,28.4,24.8,86,29.85,5.0,South,10.4,-,0.01,Snow,Light Snow,180,2013-03-07 05:27:00
10:45 PM,28.4,26.6,93,29.85,2.5,SE,8.1,-,0.01,Snow,Light Snow,140,2013-03-07 05:45:00
10:51 PM,28.9,27.0,92,29.92,2.5,SSE,8.1,-,0.01,Snow,Light Snow,150,2013-03-07 05:51:00
10:57 PM,28.4,26.6,93,29.85,3.0,SE,8.1,-,0.00,Snow,Light Snow,140,2013-03-07 05:57:00
11:04 PM,28.4,26.6,93,29.86,2.5,SSE,8.1,-,0.01,Snow,Light Snow,150,2013-03-07 06:04:00
11:22 PM,28.4,26.6,93,29.87,7.0,South,4.6,-,0.01,Snow,Light Snow,190,2013-03-07 06:22:00
11:28 PM,26.6,26.6,100,29.87,9.0,SSE,4.6,-,0.01,,Overcast,160,2013-03-07 06:28:00
11:44 PM,28.4,26.6,93,29.87,9.0,Calm,Calm,-,0.01,Snow,Light Snow,0,2013-03-07 06:44:00
11:51 PM,27.0,26.1,96,29.94,9.0,Calm,Calm,-,0.01,,Overcast,0,2013-03-07 06:51:00